AFL31 ULLI-UUEE

Flight info

Callsign AFL31
Flight time N/A
Altitude 37000
Route SUGIN1A/28R SUGIN T873 NIRGI T73 NAMIN NAMIN3F
Aircraft B738/M-SDE2E3FGHIRWXY/LB1

Departure

Time N/A
Airport Pulkovo Airport (ULLI)

Arrival

Time 2026-05-03 20:53
Airport Sheremetyevo International Airport (UUEE)
Time Latitude Longitude Altitude Speed Heading
2026-05-03 20:15 58.65929 33.35732 36865 ft 457 kts 127°
2026-05-03 20:15 58.62258 33.45815 36859 ft 465 kts 127°
2026-05-03 20:16 58.58518 33.56046 36856 ft 472 kts 127°
2026-05-03 20:16 58.54715 33.66405 36852 ft 478 kts 127°
2026-05-03 20:17 58.50851 33.76884 36846 ft 484 kts 127°
2026-05-03 20:17 58.46952 33.87411 36846 ft 486 kts 127°
2026-05-03 20:18 58.43042 33.97924 36840 ft 488 kts 127°
2026-05-03 20:18 58.39156 34.08323 36844 ft 488 kts 127°
2026-05-03 20:19 58.35210 34.18837 36844 ft 487 kts 127°
2026-05-03 20:19 58.31271 34.29288 36843 ft 485 kts 127°
2026-05-03 20:20 58.27342 34.39666 36847 ft 482 kts 127°
2026-05-03 20:20 58.23427 34.49969 36842 ft 480 kts 127°
2026-05-03 20:21 58.19296 34.59851 36832 ft 475 kts 139°
2026-05-03 20:21 58.14275 34.67871 36828 ft 472 kts 143°
2026-05-03 20:22 58.09192 34.75710 36846 ft 471 kts 143°
2026-05-03 20:22 58.04141 34.83581 36866 ft 476 kts 143°
2026-05-03 20:23 57.99009 34.91624 36865 ft 483 kts 143°
2026-05-03 20:23 57.93820 34.99742 36855 ft 487 kts 143°
2026-05-03 20:24 57.88597 35.07879 36846 ft 488 kts 142°
2026-05-03 20:24 57.83357 35.16008 36843 ft 489 kts 142°
2026-05-03 20:25 57.78113 35.24109 36843 ft 488 kts 142°
2026-05-03 20:25 57.75495 35.28141 36677 ft 490 kts 142°
2026-05-03 20:25 57.72849 35.32208 36146 ft 491 kts 142°
2026-05-03 20:25 57.70215 35.36250 35576 ft 489 kts 142°
2026-05-03 20:26 57.67584 35.40280 34944 ft 489 kts 142°
2026-05-03 20:26 57.64949 35.44309 34315 ft 490 kts 142°
2026-05-03 20:26 57.62305 35.48345 33618 ft 491 kts 142°
2026-05-03 20:26 57.59656 35.52378 32859 ft 493 kts 142°
2026-05-03 20:27 57.56988 35.56439 31989 ft 497 kts 142°
2026-05-03 20:27 57.54314 35.60507 31277 ft 497 kts 142°
2026-05-03 20:27 57.51638 35.64576 30607 ft 496 kts 142°
2026-05-03 20:27 57.48976 35.68617 30125 ft 492 kts 142°
2026-05-03 20:28 57.46336 35.72619 29556 ft 488 kts 142°
2026-05-03 20:28 57.43735 35.76553 28998 ft 483 kts 142°
2026-05-03 20:28 57.41145 35.80464 28490 ft 477 kts 142°
2026-05-03 20:28 57.38580 35.84327 27964 ft 472 kts 142°
2026-05-03 20:29 57.36043 35.88139 27465 ft 468 kts 142°
2026-05-03 20:29 57.33528 35.91912 26950 ft 464 kts 142°
2026-05-03 20:29 57.31063 35.95602 26458 ft 460 kts 142°
2026-05-03 20:29 57.28555 35.99351 25958 ft 456 kts 142°
2026-05-03 20:30 57.26131 36.02968 25472 ft 452 kts 142°
2026-05-03 20:30 57.23693 36.06600 24977 ft 449 kts 142°
2026-05-03 20:30 57.21268 36.10205 24502 ft 446 kts 142°
2026-05-03 20:30 57.18861 36.13779 24029 ft 443 kts 142°
2026-05-03 20:31 57.16471 36.17320 23543 ft 440 kts 142°
2026-05-03 20:31 57.14087 36.20849 22988 ft 438 kts 142°
2026-05-03 20:31 57.11723 36.24340 22465 ft 434 kts 142°
2026-05-03 20:31 57.09377 36.27802 21968 ft 430 kts 142°
2026-05-03 20:32 57.07051 36.31228 21484 ft 426 kts 142°
2026-05-03 20:32 57.04745 36.34617 21018 ft 422 kts 142°
2026-05-03 20:32 57.02460 36.37964 20570 ft 418 kts 142°
2026-05-03 20:32 57.00191 36.41263 20128 ft 414 kts 142°
2026-05-03 20:33 56.97940 36.44523 19665 ft 411 kts 142°
2026-05-03 20:33 56.95701 36.47763 19209 ft 408 kts 142°
2026-05-03 20:33 56.93481 36.50973 18753 ft 405 kts 142°
2026-05-03 20:33 56.91279 36.54155 18302 ft 403 kts 142°
2026-05-03 20:34 56.89083 36.57321 17780 ft 400 kts 142°
2026-05-03 20:34 56.86904 36.60459 17287 ft 397 kts 143°
2026-05-03 20:34 56.84742 36.63569 16818 ft 394 kts 143°
2026-05-03 20:34 56.82598 36.66648 16357 ft 391 kts 143°
2026-05-03 20:35 56.80469 36.69703 15900 ft 387 kts 143°
2026-05-03 20:35 56.78360 36.72726 15461 ft 384 kts 143°
2026-05-03 20:35 56.76276 36.75710 15199 ft 376 kts 143°
2026-05-03 20:35 56.74251 36.78604 15045 ft 365 kts 143°
2026-05-03 20:36 56.72278 36.81419 14891 ft 356 kts 143°
2026-05-03 20:36 56.70404 36.84319 14607 ft 352 kts 137°
2026-05-03 20:36 56.68675 36.87434 14316 ft 349 kts 135°
2026-05-03 20:36 56.66989 36.90594 14024 ft 348 kts 135°
2026-05-03 20:37 56.65304 36.93745 13727 ft 348 kts 136°
2026-05-03 20:37 56.63608 36.96879 13388 ft 347 kts 136°
2026-05-03 20:37 56.61929 36.99945 13062 ft 347 kts 136°
2026-05-03 20:37 56.60227 37.03032 12747 ft 346 kts 136°
2026-05-03 20:38 56.58525 37.06103 12437 ft 344 kts 136°
2026-05-03 20:38 56.56827 37.09159 12131 ft 343 kts 136°
2026-05-03 20:38 56.55137 37.12193 11808 ft 341 kts 136°
2026-05-03 20:38 56.53463 37.15194 11514 ft 337 kts 136°
2026-05-03 20:39 56.51741 37.17926 11203 ft 331 kts 151°
2026-05-03 20:39 56.49634 37.19403 10949 ft 321 kts 168°
2026-05-03 20:39 56.47473 37.20312 10672 ft 317 kts 170°
2026-05-03 20:39 56.45324 37.21147 10407 ft 314 kts 171°
2026-05-03 20:40 56.43199 37.21969 10129 ft 311 kts 171°
2026-05-03 20:40 56.41096 37.22794 9862 ft 308 kts 170°
2026-05-03 20:40 56.39046 37.23611 9857 ft 295 kts 170°
2026-05-03 20:40 56.37032 37.24420 9361 ft 300 kts 170°
2026-05-03 20:41 56.35000 37.25238 9056 ft 299 kts 170°
2026-05-03 20:41 56.32979 37.26056 8776 ft 296 kts 170°
2026-05-03 20:41 56.30979 37.26866 8508 ft 293 kts 170°
2026-05-03 20:41 56.28997 37.27669 8249 ft 290 kts 170°
2026-05-03 20:42 56.27697 37.28194 8078 ft 289 kts 170°
2026-05-03 20:42 56.25118 37.29237 7742 ft 285 kts 169°
2026-05-03 20:42 56.23203 37.30132 7475 ft 284 kts 167°
2026-05-03 20:42 56.21308 37.31093 7219 ft 282 kts 167°
2026-05-03 20:43 56.19436 37.32104 6959 ft 281 kts 159°
2026-05-03 20:43 56.17866 37.34155 6694 ft 282 kts 128°
2026-05-03 20:43 56.17033 37.37278 6462 ft 278 kts 100°
2026-05-03 20:43 56.16934 37.39593 6301 ft 275 kts 84°
2026-05-03 20:44 56.17308 37.42870 6068 ft 270 kts 72°
2026-05-03 20:44 56.17819 37.46102 5808 ft 268 kts 72°
2026-05-03 20:44 56.18320 37.49312 5560 ft 266 kts 72°
2026-05-03 20:44 56.18807 37.52500 5310 ft 264 kts 72°
2026-05-03 20:45 56.19273 37.55670 5132 ft 260 kts 77°
2026-05-03 20:45 56.19185 37.58864 4949 ft 257 kts 111°
2026-05-03 20:45 56.18268 37.61575 4869 ft 255 kts 132°
2026-05-03 20:45 56.17044 37.63889 4746 ft 256 kts 136°
2026-05-03 20:46 56.15775 37.66131 4612 ft 256 kts 136°
2026-05-03 20:46 56.14512 37.68385 4484 ft 256 kts 136°
2026-05-03 20:46 56.13261 37.70647 4349 ft 254 kts 136°
2026-05-03 20:46 56.12036 37.72878 4225 ft 248 kts 136°
2026-05-03 20:47 56.10844 37.75055 4096 ft 241 kts 136°
2026-05-03 20:47 56.09530 37.76785 3957 ft 231 kts 165°
2026-05-03 20:47 56.08006 37.77001 3855 ft 213 kts 191°
2026-05-03 20:47 56.06608 37.76403 3691 ft 201 kts 201°
2026-05-03 20:48 56.05309 37.75643 3533 ft 192 kts 202°
2026-05-03 20:48 56.04072 37.74914 3368 ft 185 kts 202°
2026-05-03 20:48 56.02857 37.74193 3219 ft 183 kts 205°
2026-05-03 20:48 56.01892 37.72859 3057 ft 174 kts 244°
2026-05-03 20:49 56.01506 37.70849 2985 ft 172 kts 257°
2026-05-03 20:49 56.01197 37.68795 2988 ft 171 kts 257°
2026-05-03 20:49 56.00889 37.66733 2980 ft 172 kts 257°
2026-05-03 20:49 56.00581 37.64653 2915 ft 176 kts 257°
2026-05-03 20:50 56.00265 37.62527 2691 ft 176 kts 257°
2026-05-03 20:50 55.99967 37.60476 2446 ft 166 kts 257°
2026-05-03 20:50 55.99698 37.58586 2258 ft 148 kts 256°
2026-05-03 20:50 55.99447 37.56876 2108 ft 139 kts 256°
2026-05-03 20:51 55.99201 37.55214 2028 ft 139 kts 256°
2026-05-03 20:51 55.98959 37.53578 1917 ft 129 kts 255°
2026-05-03 20:51 55.98722 37.52072 1639 ft 123 kts 254°
2026-05-03 20:51 55.98496 37.50626 1424 ft 120 kts 255°
2026-05-03 20:52 55.98289 37.49179 1233 ft 122 kts 254°
2026-05-03 20:52 55.98070 37.47686 1030 ft 127 kts 253°
2026-05-03 20:52 55.97834 37.46153 877 ft 127 kts 254°
2026-05-03 20:52 55.97615 37.44645 689 ft 124 kts 255°
2026-05-03 20:53 55.97400 37.43210 640 ft 111 kts 255°
2026-05-03 20:53 55.97230 37.42080 639 ft 77 kts 255°
2026-05-03 20:53 55.97142 37.41478 647 ft 33 kts 261°
2026-05-03 20:53 55.97247 37.41307 640 ft 22 kts 345°
2026-05-03 20:54 55.97393 37.41241 640 ft 18 kts 345°
2026-05-03 20:54 55.97501 37.41189 641 ft 11 kts 345°
2026-05-03 20:54 55.97572 37.41156 639 ft 10 kts 347°
2026-05-03 20:55 55.97631 37.41225 639 ft 13 kts 72°
2026-05-03 20:55 55.97656 37.41389 639 ft 14 kts 75°
2026-05-03 20:55 55.97697 37.41526 638 ft 13 kts 14°
2026-05-03 20:55 55.97784 37.41491 648 ft 13 kts 346°
2026-05-03 20:56 55.97869 37.41452 638 ft 12 kts 355°
2026-05-03 20:56 55.97935 37.41504 638 ft 7 kts 39°
2026-05-03 20:56 55.97955 37.41577 642 ft 7 kts 74°
2026-05-03 20:56 55.97961 37.41619 638 ft 0 kts 76°